SENTINEL-6

Last updated on Mon Oct 14 2024 00:02:25 GMT+0000 (Coordinated Universal Time)

1 46984U 20086A 24287.43862135 -.00000021 00000+0 17183-3 0 9998 2 46984 66.0425 325.6641 0007885 269.4100 90.6012 12.80929190181978
UTC large
Height (km)
Speed (km/s)
/
Latitude / Longitude
Inclination (degrees)
Orbital Period (minutes)
Azimuth
Elevation
Range (km)
Doppler Factor

Next 0 passes for location: London (51.5072 / 0.1276)

Sorry there are no passes over London.